Location: Hamilton
(39.3990°N, 84.5610°W)
Time: 05:40:09
(UTC-04:00)

ISS - Visible Passes

Search period start: 28 May 2018 00:00
Search period end: 07 June 2018 00:00
Orbit: 402 x 407 km, 51.6° (Epoch: 28 May)

Date Brightness Start Highest point End Pass type
(mag) Time Alt. Az. Time Alt. Az. Time Alt. Az.
28 May -0.7 01:18:03 10° NNW 01:18:50 15° NNW 01:18:50 15° NNW visible
29 May -1.1 00:26:06 10° NNW 00:28:12 17° NNE 00:28:12 17° NNE visible
29 May -0.5 21:57:50 10° NNW 21:58:15 10° N 21:58:41 10° N visible
29 May -0.9 23:34:13 10° NNW 23:35:53 13° NNE 23:37:35 10° NE visible
30 May -0.7 01:09:48 10° NW 01:10:14 13° NW 01:10:14 13° NW visible
30 May -0.7 22:42:22 10° N 22:43:20 11° N 22:44:18 10° NNE visible
31 May -1.5 00:17:44 10° NW 00:19:39 24° N 00:19:39 24° N visible
31 May -1.6 23:25:45 10° NNW 23:28:13 19° NNE 23:29:06 18° NE visible
01 Jun -0.5 01:01:44 10° WNW 01:01:44 10° WNW 01:01:44 10° WNW visible
01 Jun -1.1 22:33:48 10° NNW 22:35:42 14° NNE 22:37:37 10° NE visible
02 Jun -1.8 00:09:28 10° NW 00:11:12 28° NW 00:11:12 28° NW visible
02 Jun -0.9 21:41:53 10° N 21:43:07 12° NNE 21:44:21 10° NNE visible
02 Jun -2.6 23:17:20 10° NW 23:20:21 34° NNE 23:20:41 33° NE visible
03 Jun -1.8 22:25:16 10° NNW 22:27:55 22° NNE 22:30:12 12° ENE visible
04 Jun -1.7 00:01:23 10° WNW 00:02:50 23° WNW 00:02:50 23° WNW visible
04 Jun -1.3 21:33:16 10° NNW 21:35:23 16° NNE 21:37:30 10° ENE visible
04 Jun -3.9 23:09:02 10° NW 23:12:18 79° NE 23:12:23 78° ENE visible
05 Jun -2.9 22:16:49 10° NW 22:19:57 41° NNE 22:21:58 19° E visible
05 Jun -1.2 23:53:46 10° W 23:54:36 14° W 23:54:36 14° W visible
06 Jun -3.1 23:00:58 10° WNW 23:04:02 39° SW 23:04:13 38° SW visible
